COSMOS 2476 (744)

Last updated on June 24, 2019, 3:41 a.m. UTC

1 37867U 11064A   19174.73773706  .00000082  00000-0  00000+0 0  9994
2 37867  64.5045 159.3260 0021083 244.6073 264.2509  2.13101933 59468
UTC
Height (km)
Latitude
Longitude
Inclination
Orbital Period
UTC large
Height (km)
Speed (km/s)
/
Latitude / Longitude
Inclination (degrees)
Orbital Period (minutes)
Azimuth
Elevation
Range (km)
Doppler Factor
iOS Compass Heading
iOS Angle

Next 30 passes for location: Hong Kong

Rise time Rise Azimuth (degrees) Set time Set Azimuth (degrees) Duration Max altitude (degrees)

No matching passes for this satellites